TimeEST,TemperatureF,Dew PointF,Humidity,Sea Level PressureIn,VisibilityMPH,Wind Direction,Wind SpeedMPH,Gust SpeedMPH,PrecipitationIn,Events,Conditions,WindDirDegrees,DateUTC
12:15 AM,39.2,33.8,81,30.28,10.0,Calm,Calm,-,N/A,,Clear,0,2012-11-16 05:15:00
12:35 AM,37.4,33.8,87,30.28,10.0,North,3.5,-,N/A,,Clear,350,2012-11-16 05:35:00
12:55 AM,39.2,32.0,75,30.28,10.0,North,3.5,-,N/A,,Clear,10,2012-11-16 05:55:00
1:15 AM,41.0,32.0,70,30.28,10.0,North,4.6,-,N/A,,Clear,10,2012-11-16 06:15:00
1:35 AM,41.0,32.0,70,30.27,10.0,NNE,4.6,-,N/A,,Clear,30,2012-11-16 06:35:00
1:55 AM,37.4,32.0,81,30.28,10.0,NE,3.5,-,N/A,,Clear,50,2012-11-16 06:55:00
2:15 AM,37.4,32.0,81,30.28,10.0,NE,4.6,-,N/A,,Clear,50,2012-11-16 07:15:00
2:35 AM,37.4,32.0,81,30.28,10.0,ENE,5.8,-,N/A,,Clear,60,2012-11-16 07:35:00
2:55 AM,37.4,32.0,81,30.28,10.0,ENE,4.6,-,N/A,,Clear,60,2012-11-16 07:55:00
3:15 AM,39.2,32.0,75,30.27,10.0,NE,3.5,-,N/A,,Clear,50,2012-11-16 08:15:00
3:35 AM,39.2,32.0,75,30.27,10.0,NE,3.5,-,N/A,,Clear,50,2012-11-16 08:35:00
3:55 AM,41.0,30.2,65,30.27,10.0,Calm,Calm,-,N/A,,Clear,0,2012-11-16 08:55:00
4:15 AM,37.4,32.0,81,30.26,10.0,ENE,4.6,-,N/A,,Clear,60,2012-11-16 09:15:00
4:35 AM,33.8,32.0,93,30.26,10.0,NE,6.9,-,N/A,,Clear,50,2012-11-16 09:35:00
4:55 AM,35.6,32.0,87,30.27,10.0,NE,6.9,-,N/A,,Clear,50,2012-11-16 09:55:00
5:15 AM,37.4,32.0,81,30.27,10.0,NE,5.8,-,N/A,,Clear,50,2012-11-16 10:15:00
5:35 AM,37.4,32.0,81,30.27,10.0,NE,5.8,-,N/A,,Clear,50,2012-11-16 10:35:00
6:47 AM,37.4,32.0,81,30.28,10.0,NE,5.8,-,N/A,,Clear,50,2012-11-16 11:47:00
7:47 AM,39.2,32.0,75,30.30,10.0,NE,5.8,-,N/A,,Clear,50,2012-11-16 12:47:00
8:47 AM,42.8,35.6,76,30.31,10.0,ENE,8.1,-,N/A,,Clear,70,2012-11-16 13:47:00
9:47 AM,46.4,35.6,66,30.32,10.0,ENE,8.1,-,N/A,,Clear,70,2012-11-16 14:47:00
10:47 AM,50.0,35.6,58,30.33,10.0,NE,6.9,-,N/A,,Clear,50,2012-11-16 15:47:00
11:47 AM,53.6,35.6,51,30.31,10.0,NE,5.8,-,N/A,,Clear,40,2012-11-16 16:47:00
12:47 PM,55.4,33.8,44,30.29,10.0,ESE,3.5,-,N/A,,Clear,110,2012-11-16 17:47:00
1:47 PM,57.2,30.2,36,30.27,10.0,East,5.8,-,N/A,,Clear,100,2012-11-16 18:47:00
2:47 PM,59.0,30.2,34,30.26,10.0,East,3.5,-,N/A,,Clear,100,2012-11-16 19:47:00
3:47 PM,59.0,28.4,31,30.25,10.0,East,3.5,-,N/A,,Clear,100,2012-11-16 20:47:00
4:47 PM,55.4,28.4,36,30.27,10.0,East,5.8,-,N/A,,Clear,90,2012-11-16 21:47:00
5:47 PM,53.6,28.4,38,30.28,10.0,Calm,Calm,-,N/A,,Clear,0,2012-11-16 22:47:00
6:47 PM,50.0,32.0,50,30.30,10.0,Calm,Calm,-,N/A,,Clear,0,2012-11-16 23:47:00
7:47 PM,51.8,30.2,44,30.31,10.0,NE,3.5,-,N/A,,Clear,40,2012-11-17 00:47:00
8:15 PM,50.0,32.0,50,30.32,10.0,Calm,Calm,-,N/A,,Clear,0,2012-11-17 01:15:00
8:35 PM,50.0,32.0,50,30.32,10.0,NE,4.6,-,N/A,,Clear,40,2012-11-17 01:35:00
8:47 PM,48.2,30.2,50,30.32,10.0,ENE,4.6,-,N/A,,Clear,60,2012-11-17 01:47:00
8:55 PM,44.6,32.0,61,30.33,10.0,NE,3.5,-,N/A,,Clear,50,2012-11-17 01:55:00
9:15 PM,44.6,32.0,61,30.33,10.0,NE,4.6,-,N/A,,Clear,50,2012-11-17 02:15:00
9:35 PM,42.8,32.0,66,30.34,10.0,ENE,4.6,-,N/A,,Clear,60,2012-11-17 02:35:00
9:55 PM,44.6,32.0,61,30.35,10.0,ENE,4.6,-,N/A,,Clear,70,2012-11-17 02:55:00
10:15 PM,46.4,32.0,57,30.35,10.0,NE,4.6,-,N/A,,Clear,40,2012-11-17 03:15:00
10:55 PM,46.4,32.0,57,30.36,10.0,NNE,5.8,-,N/A,,Clear,30,2012-11-17 03:55:00
11:15 PM,46.4,32.0,57,30.36,10.0,NNE,4.6,-,N/A,,Clear,30,2012-11-17 04:15:00
11:35 PM,44.6,32.0,61,30.36,10.0,NE,4.6,-,N/A,,Clear,40,2012-11-17 04:35:00
11:55 PM,44.6,32.0,61,30.36,10.0,NNE,5.8,-,N/A,,Clear,30,2012-11-17 04:55:00